[[{"header":{"parameterUnit":"m.s-1","parameterCategory":1,"la1":30.2991,"la2":30.254,"lo1":-89.0895,"lo2":-89.0444,"dy":0.0017,"dx":0.0017,"nx":28,"ny":28,"refTime":"2025-03-10T03:00:00:Z","depth":0,"parameterNumber":2,"parameterNumberName":"U-component_of_WINDS"},"data":[0,0,0,0,0,0,0,0,0,0,0,0,0,0,0,0,0,0,0,0,0,0,0,0,0,0,0,0,0,0,0,0,0,0,0,0,0,0,0,0,0,0,0,0,0,0,0,0,0,0,0,0,0,0,0,0,0,0,6.2174,6.2176,0,6.2342,6.2344,6.2346,6.2301,6.2298,6.2294,6.2291,6.2465,6.2472,6.248,0,0,0,0,0,0,0,0,0,0,0,0,0,6.1816,6.1823,6.2174,6.2176,6.2178,6.2342,6.2344,6.2346,6.2302,6.2297,6.2293,6.2289,6.2462,6.2471,6.248,0,0,0,0,0,0,0,0,0,0,0,0,0,6.1977,6.1825,6.2173,6.2175,6.2177,6.2341,6.2344,6.2347,6.2302,6.2297,6.2292,6.2288,6.2459,6.247,6.2482,6.2655,0,0,6.2517,6.2522,0,0,0,0,0,0,0,0,6.1968,6.199,6.2173,6.2175,6.2178,6.2295,6.2282,6.245,6.2304,6.2255,6.2291,6.2285,6.2412,6.2428,6.247,6.2663,6.267,6.2518,6.2525,6.253,6.2534,0,0,0,0,0,0,0,6.1957,6.1982,6.224,6.2176,6.2179,6.2169,6.2186,6.2313,6.236,6.2259,6.2256,6.2276,6.2413,6.2459,6.2474,6.2673,6.2518,6.2528,6.2535,6.254,6.3019,6.3024,0,0,0,0,0,0,6.1943,6.1973,6.2235,6.2245,6.2058,6.2179,6.2198,6.2263,6.2358,6.2368,6.228,6.2274,6.2442,6.246,6.248,6.2691,6.253,6.2541,6.2548,6.3013,6.302,6.3026,0,0,0,0,0,0,6.1936,6.1967,6.2228,6.2109,6.2141,6.2191,6.2263,6.2269,6.2315,6.2375,6.2383,6.2319,6.2438,6.2463,6.2612,6.2696,6.2546,6.2557,6.3006,6.3015,6.3023,6.3113,0,0,0,0,0,0,6.1926,6.1965,6.203,6.2111,6.2148,6.2357,6.2268,6.2276,6.2335,6.2328,6.2413,6.2423,6.2436,6.2595,6.2624,6.2709,6.2566,6.2999,6.301,6.3021,6.3103,6.3123,6.3141,0,0,0,0,0,6.1913,6.2048,6.2033,6.2065,6.223,6.2362,6.2383,6.2396,6.2342,6.2409,6.2448,6.242,6.2682,6.2611,6.2643,6.2733,6.2994,6.3007,6.302,6.3094,6.3119,6.3141,0,0,0,0,0,0,6.1976,6.2058,6.2043,6.2208,6.2278,6.2354,6.2438,6.2422,6.2509,6.2499,6.2511,6.2531,6.2684,6.2723,6.2642,6.2907,6.283,6.285,6.2876,6.29,6.2919,6.2907,6.2576,0,0,0,0,0,6.2009,6.2108,6.2175,6.2314,6.235,6.2389,6.2446,6.245,6.2524,6.2553,6.2603,6.2675,6.2775,6.2839,6.2933,6.3108,6.3127,6.3186,6.3205,6.3221,6.3238,6.3336,6.3364,6.3069,6.3069,6.3068,0,0,6.2078,6.2135,6.2197,6.2328,6.2383,6.2487,6.2414,6.2526,6.2603,6.257,6.2714,6.2753,6.2836,6.2999,6.3073,6.3036,6.3324,6.3237,6.3249,6.3259,6.3352,6.338,6.3405,6.3078,6.3076,6.3075,0,0,6.2257,6.231,6.2433,6.249,6.2574,6.2599,6.2629,6.2708,6.2733,6.2877,6.2855,6.2948,6.3118,6.3178,6.3231,6.3436,6.3415,6.3467,6.3568,6.3663,6.3687,6.3707,6.3783,6.3809,6.3484,6.3484,6.3484,0,6.2333,6.2487,6.2498,6.2613,6.2673,6.2648,6.2773,6.2828,6.2939,6.2981,6.2938,6.3153,6.3206,6.3384,6.3435,6.3478,6.3513,6.3457,6.3682,6.3703,6.3723,6.3795,6.3823,6.349,6.3489,6.3488,6.3488,0,6.2577,6.2685,6.2775,6.2883,6.2952,6.3072,6.3102,6.3171,6.317,6.32,6.3349,6.3413,6.3521,6.3563,6.3562,6.3742,6.3717,6.3678,6.3602,6.3757,6.3825,6.3852,6.3498,6.3496,6.3494,6.3493,0,0,6.28,6.2915,6.2947,6.2997,6.309,6.3174,6.3293,6.3399,6.3459,6.3537,6.3639,6.3785,6.375,6.381,6.3816,6.39,6.4062,6.3851,6.3853,6.389,6.4267,6.4297,6.4328,6.4048,6.4053,6.4057,6.4261,0,6.2989,6.3199,6.3214,6.3404,6.3506,6.3485,6.3589,6.3658,6.369,6.3781,6.3816,6.392,6.3865,6.3902,6.3984,6.4025,6.4138,6.401,6.4145,6.4149,6.4126,6.4364,6.4395,6.4584,6.4287,6.4292,6.4295,0,6.3238,6.3324,6.3525,6.3605,6.3648,6.3742,6.3842,6.3928,6.4007,6.4024,6.4093,6.4088,6.4213,6.4132,6.4305,6.4218,6.4274,6.4302,6.431,6.4324,6.4232,6.4386,6.4644,6.4673,6.4337,6.4333,6.433,0,6.3383,6.3549,6.3692,6.3735,6.3831,6.3898,6.3942,6.4015,6.4079,6.4166,6.4208,6.4308,6.4364,6.4443,6.4466,6.4404,6.464,6.4559,6.4659,6.4659,6.4711,6.4707,6.4983,6.4744,6.4744,6.4743,6.4743,0,6.3593,6.3718,6.3759,6.3846,6.3986,6.4002,6.4139,6.4179,6.4245,6.4341,6.4329,6.442,6.4444,6.454,6.4559,6.4701,6.4726,6.4745,6.4749,6.4747,6.4745,6.4785,6.4773,6.4751,6.4749,6.4748,6.4746,0,6.3779,6.3811,6.3966,6.4045,6.4068,6.4168,6.4236,6.4322,6.4352,6.4474,6.4504,6.4552,6.4665,6.4696,6.483,6.4843,6.5011,6.5002,6.4985,6.4985,6.5084,6.5075,6.5397,6.5441,6.5171,6.5174,6.5176,0,6.3912,6.4008,6.4098,6.4162,6.4208,6.431,6.4376,6.4395,6.4464,6.4562,6.4636,6.4747,6.4837,6.5018,6.5066,6.517,6.5164,6.527,6.518,6.5176,6.5168,6.5163,6.5174,6.5287,6.529,6.5292,6.5294,0,6.4146,6.4158,6.4251,6.4353,6.4431,6.4511,6.4588,6.4641,6.4672,6.475,6.4865,6.4935,6.5074,6.5185,6.529,6.5336,6.5322,6.5322,6.5351,6.5351,6.5338,6.5349,6.5033,6.5315,6.5313,6.5311,6.531,6.5309,6.4311,6.4396,6.4473,6.4579,6.4639,6.4712,6.4797,6.4839,6.4935,6.5049,6.5055,6.5181,6.5259,6.5399,6.5451,6.5551,6.5519,6.5561,6.5572,6.5582,6.5592,6.5321,6.557,6.5569,6.5569,6.5568,6.5568,0,6.4546,6.4595,6.4692,6.4801,6.4885,6.4863,6.4948,6.502,6.5131,6.5205,6.5294,6.5428,6.5536,6.5593,6.5702,6.5771,6.5767,6.5799,6.5794,6.5806,6.5612,6.5577,6.58,6.58,6.58,6.58,6.58,6.58,6.4678,6.4821,6.4842,6.5016,6.5064,6.5187,6.5238,6.5306,6.5365,6.5515,6.5605,6.5641,6.571,6.5823,6.5922,6.5936,6.5978,6.6014,6.6025,6.5843,6.5819,6.5797,6.5764,6.6022,6.6022,6.621,6.6212,6.6213]},{"header":{"parameterUnit":"m.s-1","parameterCategory":1,"la1":30.2991,"la2":30.254,"lo1":-89.0895,"lo2":-89.0444,"dy":0.0017,"dx":0.0017,"nx":28,"ny":28,"refTime":"2025-03-10T03:00:00:Z","depth":0,"parameterNumber":3,"parameterNumberName":"V-component_of_WINDS"},"data":[0,0,0,0,0,0,0,0,0,0,0,0,0,0,0,0,0,0,0,0,0,0,0,0,0,0,0,0,0,0,0,0,0,0,0,0,0,0,0,0,0,0,0,0,0,0,0,0,0,0,0,0,0,0,0,0,0,0,-5.067,-5.0671,0,-5.0764,-5.0765,-5.0766,-5.0738,-5.0736,-5.0734,-5.0732,-5.0825,-5.083,-5.0834,0,0,0,0,0,0,0,0,0,0,0,0,0,-5.0468,-5.0471,-5.067,-5.0671,-5.0673,-5.0763,-5.0765,-5.0766,-5.0738,-5.0736,-5.0733,-5.0731,-5.0824,-5.0829,-5.0834,0,0,0,0,0,0,0,0,0,0,0,0,0,-5.0558,-5.0473,-5.067,-5.067,-5.0671,-5.0763,-5.0765,-5.0766,-5.0738,-5.0736,-5.0733,-5.073,-5.0822,-5.0829,-5.0835,-5.0933,0,0,-5.0855,-5.0858,0,0,0,0,0,0,0,0,-5.0553,-5.0565,-5.0669,-5.067,-5.0671,-5.0736,-5.0728,-5.0822,-5.0739,-5.0713,-5.0732,-5.0728,-5.0798,-5.0806,-5.083,-5.0938,-5.0942,-5.0855,-5.0859,-5.0862,-5.0864,0,0,0,0,0,0,0,-5.0546,-5.0561,-5.0707,-5.067,-5.0672,-5.0665,-5.0674,-5.0745,-5.077,-5.0715,-5.0713,-5.0724,-5.0798,-5.0824,-5.0832,-5.0943,-5.0855,-5.0861,-5.0865,-5.0867,-5.1137,-5.114,0,0,0,0,0,0,-5.0539,-5.0556,-5.0704,-5.071,-5.0603,-5.0671,-5.0681,-5.0718,-5.077,-5.0775,-5.0727,-5.0723,-5.0814,-5.0825,-5.0835,-5.0954,-5.0862,-5.0868,-5.0872,-5.1134,-5.1138,-5.1142,0,0,0,0,0,0,-5.0535,-5.0553,-5.07,-5.0633,-5.0651,-5.0677,-5.0719,-5.0721,-5.0747,-5.0779,-5.0783,-5.0749,-5.0812,-5.0826,-5.091,-5.0957,-5.0871,-5.0877,-5.113,-5.1135,-5.114,-5.1193,0,0,0,0,0,0,-5.053,-5.0552,-5.0589,-5.0634,-5.0655,-5.0773,-5.0722,-5.0725,-5.0759,-5.0754,-5.08,-5.0805,-5.0811,-5.09,-5.0916,-5.0965,-5.0882,-5.1126,-5.1132,-5.1138,-5.1187,-5.1199,-5.121,0,0,0,0,0,-5.0522,-5.06,-5.0591,-5.0609,-5.0702,-5.0776,-5.0788,-5.0794,-5.0763,-5.0801,-5.0821,-5.0804,-5.095,-5.0909,-5.0926,-5.0978,-5.1123,-5.1131,-5.1138,-5.1182,-5.1197,-5.1209,0,0,0,0,0,0,-5.0559,-5.0605,-5.0596,-5.069,-5.073,-5.0771,-5.0819,-5.0809,-5.0858,-5.0851,-5.0856,-5.0867,-5.0953,-5.0973,-5.0927,-5.1076,-5.1032,-5.1043,-5.1059,-5.1074,-5.1085,-5.1078,-5.0887,0,0,0,0,0,-5.0578,-5.0635,-5.0672,-5.0752,-5.0772,-5.0793,-5.0825,-5.0826,-5.0867,-5.0883,-5.091,-5.0949,-5.1004,-5.104,-5.1092,-5.119,-5.12,-5.1235,-5.1246,-5.1255,-5.1264,-5.1319,-5.1335,-5.1166,-5.1166,-5.1166,0,0,-5.0618,-5.065,-5.0686,-5.076,-5.079,-5.0849,-5.0806,-5.087,-5.0913,-5.0892,-5.0973,-5.0994,-5.1039,-5.1131,-5.1172,-5.1151,-5.1314,-5.1264,-5.1271,-5.1276,-5.1328,-5.1344,-5.1359,-5.1171,-5.117,-5.1169,0,0,-5.072,-5.0751,-5.0821,-5.0853,-5.09,-5.0914,-5.0931,-5.0974,-5.0988,-5.1069,-5.1055,-5.1107,-5.1201,-5.1234,-5.1263,-5.1381,-5.1367,-5.1398,-5.1456,-5.1509,-5.1522,-5.1534,-5.1577,-5.1592,-5.1407,-5.1407,-5.1407,0,-5.0764,-5.0852,-5.0858,-5.0923,-5.0957,-5.0942,-5.1013,-5.1043,-5.1105,-5.1129,-5.1104,-5.1223,-5.1252,-5.1352,-5.1381,-5.1405,-5.1424,-5.1392,-5.152,-5.1532,-5.1543,-5.1584,-5.16,-5.1411,-5.141,-5.141,-5.141,0,-5.0903,-5.0965,-5.1015,-5.1077,-5.1116,-5.1184,-5.12,-5.1239,-5.1238,-5.1254,-5.1338,-5.1373,-5.1432,-5.1456,-5.1454,-5.1556,-5.1541,-5.1519,-5.1474,-5.1563,-5.1601,-5.1616,-5.1416,-5.1414,-5.1413,-5.1413,0,0,-5.103,-5.1095,-5.1114,-5.1142,-5.1194,-5.1242,-5.1309,-5.1369,-5.1402,-5.1446,-5.1503,-5.1584,-5.1564,-5.1597,-5.16,-5.1646,-5.1739,-5.1618,-5.1619,-5.1639,-5.1854,-5.187,-5.1888,-5.173,-5.1733,-5.1735,-5.185,0,-5.1137,-5.1257,-5.1265,-5.1373,-5.143,-5.1418,-5.1477,-5.1516,-5.1533,-5.1584,-5.1603,-5.1661,-5.163,-5.165,-5.1696,-5.1718,-5.1781,-5.1709,-5.1783,-5.1786,-5.1772,-5.1908,-5.1926,-5.2032,-5.1865,-5.1867,-5.1869,0,-5.1278,-5.1327,-5.1441,-5.1487,-5.1511,-5.1564,-5.162,-5.1669,-5.1713,-5.1723,-5.1761,-5.1757,-5.1827,-5.1781,-5.1877,-5.1828,-5.1859,-5.1874,-5.1879,-5.1885,-5.1833,-5.1919,-5.2066,-5.2083,-5.1893,-5.1891,-5.1889,0,-5.1359,-5.1454,-5.1535,-5.156,-5.1615,-5.1653,-5.1677,-5.1718,-5.1754,-5.1803,-5.1826,-5.1882,-5.1913,-5.1956,-5.1968,-5.1933,-5.2065,-5.2019,-5.2075,-5.2075,-5.2103,-5.2101,-5.2258,-5.2123,-5.2123,-5.2122,-5.2122,0,-5.1478,-5.1549,-5.1573,-5.1623,-5.1702,-5.1711,-5.1789,-5.1811,-5.1848,-5.1902,-5.1895,-5.1945,-5.1958,-5.2012,-5.2021,-5.21,-5.2114,-5.2124,-5.2126,-5.2125,-5.2123,-5.2145,-5.2137,-5.2127,-5.2126,-5.2125,-5.2124,0,-5.1582,-5.1601,-5.1689,-5.1735,-5.1748,-5.1804,-5.1843,-5.1891,-5.1908,-5.1977,-5.1994,-5.2021,-5.2083,-5.21,-5.2174,-5.2181,-5.2274,-5.2269,-5.226,-5.226,-5.2315,-5.231,-5.249,-5.2515,-5.2364,-5.2366,-5.2367,0,-5.1657,-5.1711,-5.1763,-5.1799,-5.1826,-5.1884,-5.1921,-5.1933,-5.1971,-5.2026,-5.2068,-5.213,-5.218,-5.2281,-5.2307,-5.2364,-5.2361,-5.242,-5.2369,-5.2367,-5.2362,-5.2359,-5.2365,-5.243,-5.2431,-5.2432,-5.2434,0,-5.1788,-5.1795,-5.1848,-5.1906,-5.1951,-5.1996,-5.204,-5.207,-5.2088,-5.2132,-5.2197,-5.2236,-5.2313,-5.2375,-5.2433,-5.2458,-5.245,-5.245,-5.2466,-5.2465,-5.2458,-5.2463,-5.2286,-5.2445,-5.2444,-5.2443,-5.2443,-5.2442,-5.188,-5.1928,-5.1972,-5.2033,-5.2067,-5.2109,-5.2157,-5.2181,-5.2235,-5.2299,-5.2303,-5.2373,-5.2417,-5.2495,-5.2524,-5.2579,-5.2561,-5.2584,-5.259,-5.2595,-5.26,-5.2449,-5.2589,-5.2589,-5.2589,-5.2588,-5.2588,0,-5.201,-5.2039,-5.2094,-5.2157,-5.2205,-5.2193,-5.2241,-5.2282,-5.2344,-5.2386,-5.2437,-5.2512,-5.2572,-5.2604,-5.2664,-5.2702,-5.27,-5.2718,-5.2715,-5.2721,-5.2613,-5.2593,-5.2719,-5.2719,-5.2719,-5.2719,-5.2719,-5.2719,-5.2084,-5.2165,-5.2178,-5.2276,-5.2304,-5.2374,-5.2403,-5.2441,-5.2475,-5.2559,-5.261,-5.263,-5.2669,-5.2732,-5.2787,-5.2795,-5.2818,-5.2838,-5.2843,-5.2742,-5.2728,-5.2716,-5.2697,-5.2843,-5.2843,-5.2947,-5.2948,-5.2949]}]]